QPF
0.01 0.00 0.00 0.00 0.00 0.01 0.01 0.01 0.01 0.00 0.00 0.01 0.01 0.01 0.01 0.01 0.01 0.00 0.00 0.00 0.00 0.00 0.00 0.00 0.00 0.00 0.00 0.00 0.00 0.01 0.01 0.03 0.05 0.05 0.05 0.05 0.04 0.05 0.06 0.05 0.03 0.02 0.02 0.02
0.00 0.00 0.00 0.00 0.00 0.00 0.00 0.01 0.01 0.00 0.01 0.01 0.00 0.00 0.00 0.01 0.01 0.01 0.01 0.00 0.00 0.00 0.00 0.00 0.00 0.00 0.00 0.00 0.00 0.00 0.01 0.01 0.02 0.03 0.04 0.04 0.04 0.04 0.05 0.06 0.05 0.03 0.02 0.02
0.01 0.00 0.00 0.00 0.00 0.00 0.00 0.00 0.01 0.01 0.01 0.00 0.00 0.00 0.00 0.00 0.00 0.00 0.00 0.00 0.00 0.00 0.00 0.00 0.00 0.00 0.00 0.00 0.00 0.00 0.00 0.01 0.01 0.01 0.02 0.02 0.03 0.03 0.03 0.04 0.05 0.04 0.03 0.02
0.01 0.01 0.01 0.00 0.00 0.00 0.00 0.00 0.01 0.01 0.01 0.00 0.00 0.00 0.00 0.00 0.00 0.00 0.00 0.00 0.00 0.00 0.00 0.00 0.00 0.00 0.00 0.00 0.00 0.00 0.00 0.00 0.01 0.01 0.01 0.01 0.01 0.02 0.02 0.03 0.03 0.03 0.02 0.02
0.02 0.02 0.01 0.00 0.00 0.00 0.00 0.01 0.01 0.01 0.01 0.00 0.00 0.00 0.00 0.00 0.00 0.00 0.00 0.00 0.00 0.00 0.00 0.00 0.00 0.00 0.00 0.00 0.00 0.00 0.00 0.00 0.00 0.01 0.01 0.01 0.01 0.01 0.02 0.02 0.02 0.02 0.01 0.01
0.03 0.03 0.01 0.01 0.00 0.00 0.00 0.02 0.01 0.01 0.00 0.00 0.00 0.00 0.00 0.00 0.00 0.00 0.00 0.00 0.00 0.00 0.00 0.00 0.00 0.00 0.00 0.00 0.00 0.00 0.00 0.00 0.00 0.00 0.00 0.01 0.01 0.01 0.01 0.02 0.02 0.01 0.01 0.01
0.03 0.03 0.01 0.00 0.00 0.00 0.01 0.02 0.01 0.00 0.00 0.00 0.00 0.00 0.00 0.00 0.00 0.00 0.00 0.00 0.00 0.00 0.00 0.01 0.01 0.01 0.01 0.00 0.00 0.00 0.00 0.00 0.00 0.00 0.00 0.00 0.00 0.01 0.01 0.01 0.01 0.01 0.01 0.00
0.03 0.04 0.03 0.01 0.00 0.01 0.01 0.00 0.00 0.00 0.00 0.00 0.00 0.00 0.00 0.00 0.00 0.00 0.00 0.00 0.00 0.00 0.01 0.01 0.01 0.01 0.01 0.01 0.01 0.01 0.00 0.00 0.00 0.00 0.00 0.00 0.00 0.00 0.01 0.01 0.01 0.01 0.00 0.00
0.03 0.03 0.01 0.00 0.00 0.00 0.00 0.00 0.00 0.00 0.00 0.00 0.00 0.00 0.00 0.00 0.00 0.00 0.00 0.00 0.00 0.00 0.00 0.00 0.00 0.00 0.01 0.01 0.01 0.01 0.00 0.00 0.00 0.01 0.01 0.01 0.01 0.01 0.01 0.01 0.01 0.01 0.00 0.00
0.03 0.02 0.01 0.01 0.00 0.00 0.00 0.00 0.00 0.00 0.00 0.00 0.00 0.00 0.00 0.00 0.00 0.00 0.00 0.00 0.00 0.00 0.00 0.01 0.01 0.01 0.00 0.00 0.00 0.00 0.00 0.00 0.00 0.00 0.00 0.01 0.01 0.01 0.01 0.01 0.01 0.01 0.00 0.00
0.02 0.02 0.01 0.01 0.01 0.00 0.00 0.00 0.00 0.00 0.00 0.00 0.00 0.00 0.00 0.00 0.00 0.00 0.00 0.00 0.00 0.01 0.01 0.01 0.01 0.00 0.00 0.00 0.00 0.00 0.00 0.00 0.00 0.00 0.00 0.00 0.01 0.01 0.01 0.01 0.01 0.01 0.00 0.00
0.01 0.01 0.00 0.00 0.00 0.00 0.00 0.00 0.00 0.00 0.00 0.00 0.00 0.00 0.00 0.01 0.00 0.01 0.01 0.01 0.01 0.00 0.00 0.00 0.00 0.00 0.00 0.00 0.00 0.00 0.00 0.00 0.00 0.00 0.00 0.01 0.01 0.01 0.01 0.01 0.01 0.01 0.01 0.00
0.01 0.00 0.00 0.00 0.00 0.00 0.00 0.00 0.00 0.00 0.00 0.01 0.00 0.01 0.01 0.01 0.01 0.01 0.01 0.01 0.00 0.00 0.00 0.00 0.00 0.00 0.00 0.00 0.00 0.00 0.00 0.00 0.00 0.00 0.01 0.01 0.01 0.01 0.01 0.00 0.00 0.00 0.00 0.00
0.00 0.00 0.00 0.00 0.00 0.00 0.00 0.00 0.00 0.00 0.00 0.01 0.01 0.01 0.01 0.01 0.01 0.01 0.01 0.01 0.01 0.00 0.00 0.00 0.00 0.00 0.00 0.00 0.00 0.00 0.00 0.01 0.01 0.01 0.01 0.01 0.01 0.00 0.00 0.00 0.00 0.00 0.00 0.00
0.00 0.00 0.00 0.00 0.00 0.00 0.00 0.00 0.00 0.00 0.00 0.01 0.01 0.01 0.01 0.01 0.01 0.01 0.01 0.01 0.01 0.01 0.00 0.00 0.00 0.00 0.00 0.01 0.01 0.01 0.01 0.01 0.01 0.01 0.01 0.01 0.00 0.00 0.00 0.00 0.00 0.00 0.00 0.00
0.00 0.00 0.00 0.00 0.00 0.00 0.01 0.01 0.01 0.01 0.00 0.00 0.01 0.01 0.01 0.01 0.01 0.01 0.01 0.01 0.01 0.01 0.01 0.01 0.01 0.01 0.01 0.01 0.01 0.01 0.01 0.01 0.01 0.01 0.01 0.01 0.01 0.01 0.00 0.00 0.00 0.00 0.00 0.00
0.00 0.00 0.01 0.01 0.01 0.01 0.01 0.01 0.01 0.01 0.01 0.01 0.01 0.01 0.01 0.01 0.01 0.01 0.01 0.01 0.02 0.02 0.02 0.02 0.01 0.01 0.01 0.01 0.01 0.01 0.01 0.01 0.01 0.01 0.01 0.01 0.01 0.01 0.01 0.01 0.01 0.00 0.00 0.01
0.01 0.01 0.01 0.01 0.01 0.01 0.01 0.01 0.01 0.01 0.01 0.01 0.01 0.01 0.01 0.01 0.01 0.01 0.01 0.01 0.01 0.01 0.01 0.01 0.01 0.01 0.01 0.00 0.00 0.00 0.01 0.01 0.00 0.00 0.00 0.01 0.01 0.01 0.01 0.01 0.01 0.01 0.01 0.01
0.02 0.01 0.01 0.01 0.01 0.01 0.01 0.01 0.01 0.01 0.01 0.01 0.01 0.01 0.01 0.01 0.01 0.01 0.01 0.01 0.01 0.01 0.00 0.00 0.01 0.01 0.01 0.00 0.00 0.01 0.01 0.01 0.00 0.00 0.00 0.00 0.01 0.01 0.01 0.01 0.01 0.01 0.01 0.01
0.00 0.00 0.00 0.00 0.00 0.00 0.00 0.00 0.00 0.00 0.00 0.01 0.01 0.01 0.02 0.02 0.02 0.01 0.01 0.01 0.01 0.01 0.00 0.00 0.00 0.01 0.01 0.00 0.00 0.00 0.00 0.00 0.01 0.00 0.00 0.00 0.01 0.01 0.01 0.01 0.01 0.01 0.01 0.01
0.00 0.00 0.00 0.00 0.00 0.00 0.00 0.00 0.01 0.01 0.01 0.01 0.01 0.01 0.01 0.02 0.02 0.02 0.02 0.01 0.01 0.01 0.00 0.00 0.00 0.01 0.01 0.01 0.01 0.01 0.00 0.00 0.00 0.00 0.01 0.01 0.01 0.01 0.01 0.01 0.01 0.01 0.01 0.01
0.01 0.00 0.01 0.01 0.01 0.01 0.01 0.01 0.01 0.01 0.01 0.01 0.01 0.01 0.01 0.01 0.01 0.01 0.01 0.01 0.01 0.01 0.01 0.00 0.00 0.01 0.01 0.01 0.01 0.01 0.01 0.01 0.01 0.01 0.01 0.01 0.01 0.01 0.01 0.01 0.01 0.01 0.01 0.01
0.01 0.01 0.00 0.01 0.01 0.01 0.01 0.01 0.01 0.01 0.01 0.01 0.01 0.01 0.02 0.01 0.01 0.01 0.01 0.01 0.01 0.01 0.00 0.00 0.01 0.01 0.01 0.01 0.01 0.01 0.01 0.01 0.01 0.01 0.01 0.01 0.01 0.01 0.01 0.01 0.01 0.01 0.01 0.01
0.00 0.00 0.00 0.00 0.00 0.01 0.01 0.00 0.00 0.00 0.01 0.01 0.01 0.01 0.01 0.01 0.01 0.00 0.01 0.01 0.01 0.01 0.00 0.00 0.01 0.01 0.01 0.01 0.01 0.01 0.01 0.01 0.01 0.02 0.02 0.02 0.02 0.02 0.02 0.01 0.01 0.01 0.01 0.01
0.00 0.00 0.00 0.00 0.01 0.00 0.00 0.00 0.00 0.00 0.00 0.01 0.01 0.01 0.01 0.01 0.01 0.01 0.01 0.01 0.01 0.01 0.01 0.01 0.01 0.01 0.01 0.01 0.01 0.01 0.02 0.02 0.02 0.03 0.03 0.03 0.02 0.02 0.02 0.02 0.02 0.02 0.02 0.01
0.00 0.00 0.00 0.00 0.00 0.00 0.00 0.00 0.00 0.00 0.00 0.01 0.00 0.01 0.01 0.00 0.01 0.01 0.01 0.01 0.01 0.01 0.01 0.01 0.01 0.01 0.01 0.01 0.01 0.01 0.02 0.02 0.02 0.02 0.03 0.03 0.02 0.02 0.02 0.02 0.02 0.02 0.02 0.02
0.00 0.00 0.00 0.00 0.00 0.00 0.00 0.01 0.01 0.01 0.01 0.01 0.01 0.01 0.01 0.01 0.01 0.01 0.01 0.01 0.01 0.01 0.01 0.01 0.01 0.01 0.01 0.01 0.01 0.01 0.01 0.02 0.02 0.02 0.02 0.02 0.02 0.02 0.02 0.02 0.02 0.02 0.02 0.02
MSLP
1014.67 1014.70 1014.70 1014.69 1014.67 1014.63 1014.58 1014.50 1014.39 1014.25 1014.08 1013.87 1013.64 1013.40 1013.17 1012.98 1012.83 1012.75 1012.74 1012.81 1012.96 1013.18 1013.47 1013.82 1014.20 1014.60 1015.00 1015.41 1015.79 1016.15 1016.48 1016.77 1017.02 1017.25 1017.43 1017.59 1017.72 1017.82 1017.88 1017.92 1017.93 1017.89 1017.82 1017.72
1014.64 1014.56 1014.45 1014.34 1014.26 1014.19 1014.16 1014.15 1014.16 1014.15 1014.13 1014.06 1013.95 1013.79 1013.59 1013.37 1013.16 1012.96 1012.83 1012.76 1012.80 1012.93 1013.16 1013.49 1013.89 1014.33 1014.81 1015.28 1015.74 1016.16 1016.53 1016.85 1017.11 1017.32 1017.50 1017.63 1017.73 1017.80 1017.84 1017.86 1017.84 1017.78 1017.69 1017.57
1014.62 1014.45 1014.26 1014.09 1013.96 1013.89 1013.89 1013.95 1014.06 1014.19 1014.31 1014.39 1014.40 1014.32 1014.17 1013.94 1013.67 1013.38 1013.13 1012.94 1012.85 1012.89 1013.04 1013.33 1013.71 1014.18 1014.69 1015.21 1015.72 1016.18 1016.58 1016.92 1017.19 1017.40 1017.55 1017.66 1017.74 1017.78 1017.79 1017.77 1017.72 1017.64 1017.52 1017.36
1014.60 1014.39 1014.16 1013.96 1013.82 1013.76 1013.81 1013.95 1014.17 1014.43 1014.68 1014.89 1015.01 1015.02 1014.91 1014.69 1014.38 1014.04 1013.69 1013.40 1013.20 1013.13 1013.21 1013.43 1013.78 1014.22 1014.73 1015.26 1015.78 1016.25 1016.66 1017.00 1017.27 1017.46 1017.60 1017.68 1017.72 1017.73 1017.71 1017.65 1017.57 1017.45 1017.29 1017.10
1014.60 1014.37 1014.15 1013.95 1013.84 1013.83 1013.94 1014.16 1014.47 1014.84 1015.21 1015.52 1015.74 1015.84 1015.78 1015.59 1015.28 1014.90 1014.50 1014.13 1013.85 1013.70 1013.69 1013.83 1014.12 1014.51 1014.97 1015.47 1015.96 1016.41 1016.80 1017.11 1017.35 1017.51 1017.61 1017.66 1017.66 1017.63 1017.57 1017.48 1017.35 1017.19 1017.00 1016.78
1014.59 1014.40 1014.21 1014.07 1014.01 1014.06 1014.23 1014.53 1014.92 1015.37 1015.82 1016.23 1016.53 1016.70 1016.70 1016.55 1016.27 1015.89 1015.48 1015.08 1014.75 1014.53 1014.45 1014.51 1014.71 1015.03 1015.42 1015.84 1016.27 1016.66 1016.99 1017.24 1017.43 1017.54 1017.59 1017.58 1017.54 1017.47 1017.36 1017.23 1017.07 1016.88 1016.66 1016.41
1014.59 1014.45 1014.33 1014.25 1014.26 1014.38 1014.62 1014.98 1015.43 1015.93 1016.44 1016.90 1017.26 1017.48 1017.55 1017.46 1017.22 1016.89 1016.50 1016.10 1015.76 1015.51 1015.38 1015.38 1015.50 1015.72 1016.01 1016.34 1016.66 1016.96 1017.20 1017.37 1017.47 1017.51 1017.50 1017.44 1017.34 1017.22 1017.08 1016.91 1016.73 1016.52 1016.28 1016.02
1014.60 1014.52 1014.47 1014.47 1014.56 1014.74 1015.03 1015.42 1015.90 1016.42 1016.94 1017.42 1017.81 1018.08 1018.20 1018.17 1018.01 1017.74 1017.41 1017.07 1016.75 1016.50 1016.35 1016.30 1016.34 1016.47 1016.66 1016.87 1017.08 1017.25 1017.38 1017.45 1017.47 1017.42 1017.34 1017.21 1017.06 1016.90 1016.72 1016.53 1016.32 1016.10 1015.86 1015.60
1014.61 1014.59 1014.61 1014.69 1014.84 1015.07 1015.39 1015.79 1016.25 1016.75 1017.25 1017.72 1018.10 1018.39 1018.55 1018.59 1018.51 1018.33 1018.10 1017.83 1017.57 1017.36 1017.20 1017.12 1017.11 1017.15 1017.24 1017.33 1017.42 1017.48 1017.49 1017.46 1017.38 1017.25 1017.09 1016.90 1016.71 1016.50 1016.29 1016.09 1015.87 1015.65 1015.41 1015.16
1014.65 1014.68 1014.76 1014.89 1015.08 1015.33 1015.65 1016.02 1016.44 1016.88 1017.33 1017.74 1018.10 1018.39 1018.58 1018.67 1018.67 1018.60 1018.46 1018.29 1018.11 1017.95 1017.82 1017.73 1017.67 1017.65 1017.65 1017.64 1017.62 1017.57 1017.48 1017.35 1017.19 1016.99 1016.77 1016.53 1016.29 1016.06 1015.83 1015.61 1015.39 1015.17 1014.94 1014.70
1014.72 1014.78 1014.90 1015.07 1015.28 1015.53 1015.82 1016.14 1016.48 1016.84 1017.19 1017.53 1017.84 1018.10 1018.30 1018.43 1018.51 1018.52 1018.48 1018.41 1018.32 1018.22 1018.13 1018.04 1017.96 1017.89 1017.81 1017.73 1017.62 1017.48 1017.32 1017.12 1016.89 1016.64 1016.38 1016.11 1015.85 1015.59 1015.35 1015.11 1014.89 1014.67 1014.44 1014.20
1014.84 1014.93 1015.07 1015.25 1015.46 1015.69 1015.92 1016.17 1016.41 1016.66 1016.91 1017.16 1017.39 1017.61 1017.80 1017.96 1018.09 1018.18 1018.22 1018.24 1018.22 1018.18 1018.11 1018.03 1017.94 1017.83 1017.71 1017.57 1017.41 1017.22 1017.01 1016.77 1016.51 1016.24 1015.96 1015.68 1015.40 1015.13 1014.87 1014.63 1014.39 1014.15 1013.91 1013.66
1015.01 1015.11 1015.27 1015.46 1015.65 1015.84 1016.01 1016.16 1016.31 1016.44 1016.58 1016.73 1016.88 1017.05 1017.22 1017.38 1017.54 1017.67 1017.78 1017.85 1017.89 1017.88 1017.84 1017.77 1017.66 1017.53 1017.38 1017.20 1017.01 1016.80 1016.58 1016.33 1016.08 1015.81 1015.53 1015.25 1014.97 1014.69 1014.42 1014.15 1013.89 1013.62 1013.35 1013.06
1015.20 1015.33 1015.50 1015.68 1015.85 1015.99 1016.10 1016.17 1016.22 1016.25 1016.28 1016.33 1016.41 1016.52 1016.66 1016.81 1016.98 1017.13 1017.27 1017.37 1017.43 1017.44 1017.40 1017.32 1017.20 1017.05 1016.87 1016.69 1016.49 1016.28 1016.07 1015.84 1015.61 1015.37 1015.11 1014.84 1014.56 1014.28 1013.99 1013.69 1013.39 1013.08 1012.76 1012.43
1015.40 1015.55 1015.73 1015.91 1016.05 1016.16 1016.21 1016.20 1016.17 1016.11 1016.06 1016.03 1016.04 1016.10 1016.20 1016.33 1016.48 1016.64 1016.78 1016.88 1016.93 1016.93 1016.88 1016.77 1016.63 1016.46 1016.28 1016.09 1015.89 1015.70 1015.52 1015.33 1015.13 1014.92 1014.69 1014.44 1014.17 1013.87 1013.56 1013.23 1012.88 1012.52 1012.15 1011.76
1015.56 1015.73 1015.92 1016.10 1016.23 1016.30 1016.30 1016.24 1016.14 1016.02 1015.91 1015.82 1015.78 1015.79 1015.86 1015.96 1016.10 1016.23 1016.35 1016.43 1016.45 1016.43 1016.34 1016.21 1016.04 1015.85 1015.65 1015.46 1015.28 1015.11 1014.96 1014.81 1014.65 1014.47 1014.27 1014.03 1013.76 1013.45 1013.11 1012.74 1012.35 1011.94 1011.52 1011.08
1015.65 1015.84 1016.04 1016.22 1016.33 1016.38 1016.34 1016.25 1016.11 1015.94 1015.79 1015.66 1015.59 1015.57 1015.61 1015.69 1015.79 1015.89 1015.98 1016.02 1016.01 1015.94 1015.82 1015.65 1015.46 1015.24 1015.04 1014.85 1014.68 1014.53 1014.40 1014.28 1014.14 1013.99 1013.80 1013.57 1013.29 1012.97 1012.60 1012.21 1011.78 1011.34 1010.88 1010.42
1015.63 1015.85 1016.06 1016.22 1016.32 1016.35 1016.29 1016.17 1016.00 1015.81 1015.64 1015.49 1015.40 1015.36 1015.37 1015.43 1015.51 1015.58 1015.63 1015.63 1015.58 1015.47 1015.31 1015.11 1014.89 1014.66 1014.44 1014.25 1014.09 1013.95 1013.83 1013.72 1013.60 1013.46 1013.27 1013.04 1012.74 1012.41 1012.02 1011.60 1011.16 1010.71 1010.25 1009.80
1015.52 1015.74 1015.94 1016.09 1016.18 1016.18 1016.10 1015.96 1015.78 1015.58 1015.40 1015.24 1015.14 1015.09 1015.09 1015.12 1015.17 1015.21 1015.23 1015.20 1015.11 1014.97 1014.79 1014.56 1014.32 1014.08 1013.86 1013.66 1013.50 1013.36 1013.24 1013.13 1013.00 1012.85 1012.65 1012.40 1012.09 1011.74 1011.34 1010.92 1010.49 1010.05 1009.63 1009.23
1015.34 1015.54 1015.72 1015.85 1015.91 1015.89 1015.79 1015.64 1015.44 1015.24 1015.05 1014.89 1014.78 1014.71 1014.70 1014.71 1014.73 1014.74 1014.73 1014.67 1014.57 1014.41 1014.21 1013.97 1013.73 1013.49 1013.26 1013.07 1012.90 1012.75 1012.62 1012.49 1012.34 1012.16 1011.93 1011.66 1011.34 1010.98 1010.59 1010.19 1009.78 1009.40 1009.04 1008.72
1015.10 1015.28 1015.43 1015.53 1015.56 1015.51 1015.39 1015.22 1015.01 1014.80 1014.60 1014.43 1014.31 1014.23 1014.19 1014.18 1014.17 1014.16 1014.12 1014.04 1013.92 1013.76 1013.55 1013.33 1013.09 1012.86 1012.64 1012.45 1012.27 1012.11 1011.96 1011.80 1011.62 1011.40 1011.15 1010.85 1010.52 1010.16 1009.79 1009.43 1009.08 1008.77 1008.50 1008.28
1014.85 1015.00 1015.11 1015.17 1015.16 1015.08 1014.94 1014.75 1014.53 1014.31 1014.10 1013.92 1013.77 1013.67 1013.60 1013.56 1013.52 1013.48 1013.42 1013.33 1013.20 1013.03 1012.84 1012.63 1012.41 1012.19 1011.98 1011.79 1011.61 1011.44 1011.27 1011.08 1010.87 1010.62 1010.34 1010.03 1009.69 1009.35 1009.01 1008.70 1008.42 1008.20 1008.03 1007.93
1014.60 1014.72 1014.79 1014.81 1014.77 1014.66 1014.50 1014.29 1014.06 1013.82 1013.60 1013.39 1013.22 1013.09 1012.99 1012.91 1012.83 1012.76 1012.67 1012.56 1012.42 1012.26 1012.08 1011.89 1011.69 1011.50 1011.31 1011.12 1010.95 1010.76 1010.57 1010.36 1010.12 1009.85 1009.56 1009.24 1008.91 1008.59 1008.30 1008.04 1007.84 1007.71 1007.65 1007.66
1014.35 1014.43 1014.47 1014.46 1014.39 1014.26 1014.08 1013.86 1013.62 1013.37 1013.13 1012.90 1012.71 1012.54 1012.40 1012.27 1012.16 1012.05 1011.93 1011.80 1011.65 1011.50 1011.33 1011.15 1010.97 1010.80 1010.63 1010.45 1010.28 1010.09 1009.89 1009.66 1009.41 1009.14 1008.84 1008.53 1008.23 1007.94 1007.70 1007.51 1007.39 1007.34 1007.38 1007.48
1014.07 1014.13 1014.14 1014.11 1014.02 1013.88 1013.69 1013.47 1013.22 1012.96 1012.71 1012.47 1012.24 1012.04 1011.86 1011.70 1011.55 1011.40 1011.25 1011.10 1010.94 1010.77 1010.61 1010.44 1010.28 1010.12 1009.96 1009.80 1009.63 1009.44 1009.24 1009.01 1008.76 1008.49 1008.21 1007.93 1007.66 1007.43 1007.24 1007.12 1007.06 1007.09 1007.19 1007.37
1013.74 1013.78 1013.78 1013.73 1013.63 1013.49 1013.30 1013.08 1012.84 1012.58 1012.32 1012.07 1011.84 1011.61 1011.41 1011.21 1011.02 1010.84 1010.65 1010.48 1010.30 1010.13 1009.96 1009.79 1009.63 1009.48 1009.32 1009.17 1009.00 1008.82 1008.63 1008.42 1008.18 1007.94 1007.69 1007.44 1007.22 1007.04 1006.91 1006.85 1006.86 1006.94 1007.10 1007.31
1013.34 1013.37 1013.35 1013.29 1013.19 1013.05 1012.87 1012.66 1012.43 1012.19 1011.94 1011.70 1011.46 1011.23 1011.00 1010.79 1010.57 1010.36 1010.16 1009.95 1009.76 1009.56 1009.38 1009.20 1009.04 1008.88 1008.72 1008.56 1008.40 1008.23 1008.05 1007.86 1007.66 1007.44 1007.24 1007.04 1006.88 1006.75 1006.68 1006.67 1006.73 1006.85 1007.04 1007.27
Thickness
5505 5510 5509 5508 5508 5506 5499 5499 5496 5513 5521 5524 5523 5523 5523 5523 5522 5521 5520 5519 5519 5518 5518 5518 5517 5517 5517 5516 5516 5517 5516 5516 5516 5516 5516 5517 5517 5517 5518 5518 5519 5520 5520 5520
5487 5497 5498 5498 5503 5503 5502 5502 5502 5505 5509 5512 5514 5513 5511 5510 5510 5509 5508 5507 5507 5507 5506 5506 5506 5505 5504 5504 5504 5503 5503 5503 5504 5504 5505 5505 5506 5506 5506 5507 5507 5508 5508 5508
5468 5485 5482 5480 5500 5500 5499 5499 5497 5492 5495 5500 5498 5500 5498 5497 5497 5496 5496 5496 5495 5494 5494 5494 5494 5493 5491 5491 5491 5490 5490 5490 5491 5492 5492 5492 5493 5494 5494 5494 5495 5495 5496 5497
5451 5459 5449 5487 5497 5498 5492 5489 5487 5485 5485 5485 5486 5486 5486 5485 5484 5483 5484 5483 5482 5481 5481 5480 5480 5480 5479 5478 5477 5477 5476 5477 5478 5479 5479 5479 5480 5481 5481 5482 5482 5483 5484 5484
5437 5439 5458 5477 5481 5480 5475 5471 5473 5471 5471 5471 5473 5472 5472 5473 5472 5470 5470 5470 5468 5467 5467 5467 5467 5466 5465 5464 5464 5463 5463 5463 5464 5465 5465 5466 5466 5467 5468 5468 5469 5469 5470 5471
5426 5426 5439 5461 5465 5469 5463 5450 5457 5458 5456 5456 5455 5448 5452 5457 5456 5456 5456 5456 5455 5454 5453 5452 5453 5452 5451 5450 5450 5450 5451 5451 5451 5452 5452 5452 5453 5454 5455 5455 5456 5457 5457 5458
5415 5417 5433 5446 5451 5451 5435 5435 5442 5444 5443 5441 5438 5435 5439 5442 5442 5442 5442 5441 5441 5440 5439 5438 5438 5438 5437 5437 5437 5437 5438 5438 5439 5439 5439 5439 5440 5441 5441 5442 5442 5443 5444 5445
5408 5406 5417 5432 5431 5426 5422 5427 5428 5428 5427 5426 5426 5427 5427 5427 5427 5428 5427 5427 5427 5426 5426 5425 5425 5424 5423 5424 5425 5425 5425 5425 5425 5426 5426 5427 5426 5427 5427 5427 5427 5428 5429 5431
5407 5409 5417 5418 5416 5414 5414 5412 5412 5411 5412 5412 5412 5413 5414 5414 5414 5414 5414 5414 5413 5412 5412 5412 5412 5411 5410 5411 5412 5412 5412 5412 5412 5413 5413 5413 5413 5413 5413 5413 5413 5414 5415 5416
5396 5402 5405 5404 5404 5403 5402 5401 5400 5399 5398 5398 5398 5399 5400 5400 5400 5401 5400 5399 5399 5398 5398 5398 5398 5398 5397 5398 5399 5399 5399 5399 5399 5399 5400 5400 5400 5400 5399 5399 5400 5400 5401 5401
5380 5386 5389 5392 5390 5389 5389 5388 5388 5387 5386 5386 5385 5386 5386 5386 5387 5386 5386 5385 5385 5384 5384 5384 5384 5385 5385 5385 5386 5386 5386 5386 5386 5387 5386 5387 5387 5387 5387 5388 5388 5388 5388 5387
5368 5374 5372 5375 5377 5377 5376 5376 5375 5375 5375 5375 5375 5375 5375 5374 5374 5373 5372 5372 5371 5370 5370 5370 5371 5372 5373 5373 5373 5373 5373 5374 5373 5373 5373 5373 5373 5374 5375 5375 5377 5377 5377 5376
5362 5364 5364 5365 5366 5365 5364 5363 5364 5363 5362 5362 5363 5362 5362 5362 5361 5361 5360 5359 5358 5358 5358 5358 5359 5360 5361 5361 5361 5361 5361 5361 5361 5361 5361 5360 5360 5359 5360 5363 5364 5365 5365 5365
5354 5352 5351 5351 5350 5351 5351 5351 5351 5350 5350 5349 5349 5349 5348 5348 5348 5348 5347 5347 5347 5346 5347 5347 5347 5349 5350 5350 5350 5350 5350 5350 5350 5349 5348 5347 5347 5347 5347 5348 5350 5352 5353 5354
5341 5340 5338 5338 5338 5338 5338 5338 5336 5335 5335 5336 5336 5336 5335 5335 5335 5335 5336 5336 5336 5335 5336 5337 5337 5338 5339 5339 5339 5339 5339 5339 5338 5337 5337 5336 5336 5335 5335 5336 5338 5340 5342 5343
5329 5328 5327 5326 5326 5326 5326 5325 5323 5323 5324 5324 5324 5324 5324 5324 5324 5324 5325 5325 5324 5325 5326 5327 5328 5329 5329 5328 5328 5328 5329 5329 5328 5327 5326 5326 5325 5325 5325 5325 5327 5328 5330 5332
5315 5314 5314 5313 5314 5315 5315 5314 5314 5314 5313 5313 5313 5313 5313 5313 5313 5313 5314 5314 5315 5316 5317 5318 5319 5320 5320 5319 5318 5318 5318 5319 5318 5317 5316 5316 5316 5316 5316 5316 5317 5319 5321 5323
5309 5307 5306 5305 5304 5304 5304 5305 5305 5304 5304 5304 5304 5303 5303 5302 5303 5304 5305 5305 5306 5307 5308 5309 5309 5310 5310 5309 5309 5308 5308 5308 5308 5307 5307 5307 5307 5308 5308 5309 5310 5311 5313 5314
5300 5299 5298 5297 5296 5295 5295 5295 5295 5295 5296 5295 5295 5294 5294 5295 5296 5296 5296 5296 5296 5298 5301 5301 5301 5300 5300 5300 5299 5299 5299 5299 5299 5299 5299 5300 5300 5301 5301 5302 5303 5304 5305 5307
5292 5291 5290 5288 5288 5287 5286 5286 5286 5286 5287 5287 5286 5286 5287 5288 5288 5288 5287 5288 5290 5291 5292 5292 5291 5291 5291 5291 5291 5290 5290 5290 5291 5291 5291 5292 5293 5294 5295 5296 5297 5298 5299 5300
5282 5281 5280 5279 5279 5279 5279 5279 5278 5278 5279 5279 5278 5279 5280 5280 5280 5279 5279 5281 5284 5283 5283 5284 5283 5283 5283 5283 5283 5282 5282 5283 5283 5284 5285 5286 5287 5288 5289 5290 5291 5292 5293 5294
5274 5273 5272 5272 5271 5271 5272 5272 5272 5272 5272 5272 5272 5272 5271 5272 5272 5272 5272 5273 5275 5276 5275 5275 5275 5275 5275 5276 5275 5275 5276 5276 5277 5278 5279 5279 5280 5282 5283 5284 5285 5286 5287 5288
5266 5265 5265 5265 5264 5265 5266 5266 5265 5264 5265 5265 5265 5265 5264 5265 5265 5264 5266 5268 5267 5268 5267 5268 5269 5269 5270 5269 5269 5269 5270 5271 5272 5272 5273 5274 5274 5275 5277 5278 5279 5280 5281 5283
5258 5258 5258 5258 5257 5257 5257 5259 5259 5259 5259 5260 5261 5260 5259 5258 5259 5259 5259 5261 5261 5261 5261 5262 5263 5264 5265 5264 5264 5264 5265 5266 5267 5267 5268 5269 5269 5270 5272 5273 5274 5276 5277 5279
5250 5250 5250 5250 5250 5251 5252 5253 5252 5253 5253 5255 5255 5255 5254 5253 5252 5254 5253 5254 5256 5256 5256 5257 5259 5259 5259 5259 5259 5260 5260 5261 5262 5262 5263 5264 5265 5266 5268 5269 5271 5272 5274 5276
5244 5244 5245 5245 5245 5246 5246 5246 5246 5247 5247 5248 5249 5249 5248 5248 5248 5248 5248 5249 5250 5251 5251 5252 5253 5254 5254 5254 5255 5255 5256 5257 5258 5258 5259 5260 5261 5263 5265 5266 5268 5270 5272 5274
5240 5239 5239 5240 5240 5240 5239 5239 5239 5240 5241 5241 5242 5243 5242 5243 5243 5243 5244 5245 5245 5246 5246 5247 5248 5249 5249 5250 5250 5251 5252 5253 5254 5255 5256 5257 5259 5260 5262 5264 5266 5268 5270 5272